Regional Weather Roundup
Issued by NWS

Home | Current Version | Previous Version | Text Only | Print | Product List | Glossary On
Versions: 1 2 3 4 5 6 7 8 9 10 11 12 13 14 15 16 17 18 19 20 21 22 23 24 25 26 27 28 29 30 31 32 33 34 35 36 37 38 39 40 41 42 43 44 45 46 47 48 49 50
000
ASCA44 KEWX 241920
RWRMX

LATIN AMERICA AND CARIBBEAN REGIONAL WEATHER ROUNDUP
NATIONAL WEATHER SERVICE AUSTIN/SAN ANTONIO TX
100 PM CST FRI NOV 24 2017

NOTE: "FAIR" INDICATED FEW OR NO CLOUDS BELOW 12,000 FEET WITH NO
SIGNIFICANT WEATHER AND/OR OBSTRUCTIONS TO VISIBILITY.

BAJA CALIFORNIA

CITY           SKY/WX    TMP DP  RH WIND       PRES   REMARKS
LA PAZ         SUNNY     88  28  11 N10       29.93F
MEXICALI       SUNNY     82  39  21 S2        29.90F
S.J. DEL CABO  SUNNY     86  52  30 SE14      29.93F
TIJUANA        MOSUNNY   84  34  16 CALM      29.96

NORTHWESTERN MEXICO

CITY           SKY/WX    TMP DP  RH WIND       PRES   REMARKS
CULIACAN       SUNNY     86  57  37 S3        29.90F
DURANGO        SUNNY     63  16  16 W5        30.23F
GUAYMAS        SUNNY     84  52  32 CALM      29.86F
HERMOSILLO     SUNNY     86  37  17 CALM      29.94F
CD. JUAREZ     MOSUNNY   68  25  19 SW12      30.07
LOS MOCHIS     SUNNY     84  48  28 CALM      29.92F
OBREGON        SUNNY     86  32  14 SW2       29.88F

NORTHEASTERN MEXICO

CITY           SKY/WX    TMP DP  RH WIND       PRES   REMARKS
CHIHUAHUA      SUNNY     73  30  20 CALM      30.10F
MATAMOROS      SUNNY     77  50  38 S5        29.99F
MONCLOVA       SUNNY     82  34  17 CALM      29.96
MONTERREY      SUNNY     77  32  19 S6        29.97F
PIEDRAS NEGRAS SUNNY     77  54  44 SE9       29.97F
REYNOSA        SUNNY     75  41  29 SE7       29.98F
SALTILLO       SUNNY     72  48  43 CALM      30.15F
TORREON        SUNNY     72  27  18 CALM      30.12F
CD. VICTORIA   SUNNY     79  43  27 MISG      29.99F

WESTERN MEXICO

CITY           SKY/WX    TMP DP  RH WIND       PRES   REMARKS
AGUASCALIENTES MOSUNNY   68  16  13 W2        30.23F
COLIMA         MOSUNNY   79  63  57 CALM      30.06F
DEL BAJIO      SUNNY     70  28  21 W7        30.26F
GUADALAJARA    SUNNY     72  21  15 CALM      30.17F
MAZATLAN       SUNNY     84  68  58 W8        29.91F
P. VALLARTA    SUNNY     82  63  51 SW8       29.90F
URUAPAN        MOSUNNY   70  55  60 SW12      30.15

CENTRAL MEXICO

CITY           SKY/WX    TMP DP  RH WIND       PRES   REMARKS
CUERNAVACA       N/A    N/A N/A N/A MISG        N/A
MEXICO CITY    SUNNY     66  27  22 S3        30.26F
MORELIA        SUNNY     72  28  20 CALM      30.24S
POZA RICA      SUNNY     81  63  54 E5        30.06F
PUEBLA         SUNNY     66  27  22 SE8       30.25F

SOUTHERN MEXICO

CITY           SKY/WX    TMP DP  RH WIND       PRES   REMARKS
ACAPULCO       MOSUNNY   86  72  62 S6        29.89F HX  92
B. DE HUATULCO MOSUNNY  N/A N/A N/A CALM      29.92F
OAXACA         MOSUNNY   72  41  33 S6        30.17F

YUCATAN PENINSULA

CITY           SKY/WX    TMP DP  RH WIND       PRES   REMARKS
CAMPECHE       MOSUNNY   77  66  69 N7        29.96F
CANCUN         PTSUNNY   81  64  57 NW12      29.95F
CHETUMAL         N/A    N/A N/A N/A MISG        N/A
CD. DEL CARMEN PTSUNNY  N/A N/A N/A N9        30.01F
COZUMEL        MOSUNNY   81  64  57 NW13      29.93F
MERIDA         PTSUNNY   79  57  47 N13       29.97F
MINATITLAN     MOSUNNY   79  66  65 N8        29.99
TAPACHULA      MOSUNNY   90  73  58 CALM      29.85  HX  98
TUX. GUTIERREZ MOSUNNY   79  55  44 NE3       30.00
VILLAHERMOSA   CLOUDY    75  64  69 N6        30.04F

CENTRAL AMERICA

CITY           SKY/WX    TMP DP  RH WIND       PRES   REMARKS
BELIZE CITY    MOSUNNY   81  66  61 NW8       29.98F

CARIBBEAN

CITY           SKY/WX    TMP DP  RH WIND       PRES   REMARKS
ARUBA          MOSUNNY   88  77  70 E16       29.80S HX 100
KINGSTON       PTSUNNY   84  75  74 SE15      29.83F HX  92
SAN JUAN       MOSUNNY   88  79  74 NE16      29.88F HX 102
SANTO DOMINGO  MOSUNNY   88  77  70 SE7       29.86S HX 100
ST. KITTS      MOSUNNY   86  73  66 E6        29.92S HX  93
ST. MAARTEN    MOSUNNY   84  75  74 SE9       29.92S HX  92
ST. THOMAS       N/A    N/A N/A N/A MISG      29.90F

$$




USA.gov is the U.S. government's official web portal to all federal, state and local government web resources and services.